logo Eve Who17,866,306 Characters
839,293 Corporations
9,329 Alliances

Home Pilots Corporations Alliances FAQ 

corp logo
alli logo
character image
Character:Amber Winters
Corporation:Minion Revolution
Alliance:Goonswarm Federation
Sec. Status:5.1
Links:zKillboard
EveSkillBoard
Eve-Search
Last Updated: 2019-08-17 02:03:16 | 1008762247
Corp. History
 NameJoinedLeft
corp logoMinion Revolution2015/04/17 19:22
corp logoPerkone2015/03/25 21:572015/04/17 19:21
corp logoInternet Terrorists2014/07/19 22:292015/03/25 21:56
corp logoBroz With Froz2014/06/29 00:242014/07/19 22:28
corp logoPerkone2014/06/19 03:192014/06/29 00:23
corp logoVile Drifters2014/06/14 04:342014/06/19 03:18
corp logoPerkone2014/06/14 04:342014/06/14 04:33
corp logoCard Shark Industries2014/04/20 14:312014/06/14 04:33
corp logoPerkone2014/04/07 01:252014/04/20 14:30
corp logoFederal Defense Union2014/04/05 06:242014/04/07 01:24
corp logoPerkone2014/03/29 02:592014/04/05 06:23
corp logoTradewinds Heavy Industries2014/02/20 04:242014/03/29 02:58
corp logoPerkone2013/10/08 03:352014/02/20 04:23
corp logoTribal Liberation Force2013/10/08 03:342013/10/08 03:34
corp logoPerkone2013/10/08 03:342013/10/08 03:33
corp logoDas Golden Nigz2013/10/06 18:492013/10/08 03:33
corp logoPerkone2013/09/30 20:022013/10/06 18:48
corp logoVessels of the Line2013/09/30 00:552013/09/30 20:01
corp logoPerkone2013/09/30 00:362013/09/30 00:54
corp logoGuy Fawkes Trust Fund2013/09/26 20:532013/09/30 00:35
corp logoPerkone2013/09/26 00:552013/09/26 20:52
corp logoDrop Dead Dragoons2013/09/25 18:192013/09/26 00:54
corp logoPerkone2013/09/22 21:342013/09/25 18:18
corp logoBlue Republic2013/09/22 16:512013/09/22 21:33
corp logoPerkone2013/09/22 16:122013/09/22 16:50
corp logoLoco Ne'gro2013/09/20 20:212013/09/22 16:11
corp logoPerkone2013/09/20 20:172013/09/20 20:20
corp logoCunning Stunt Team2013/09/14 17:392013/09/20 20:16
corp logoPerkone2013/09/14 04:412013/09/14 17:38
corp logoBastards Of Anarchy System Inc.2013/09/12 23:462013/09/14 04:40
corp logoPerkone2013/09/12 22:122013/09/12 23:45
corp logoHouse of Freedom2013/09/08 19:502013/09/12 22:11
corp logoPerkone2013/09/08 19:492013/09/08 19:49
corp logoDas Nig2013/08/27 05:182013/09/08 19:48
corp logoPerkone2013/08/27 02:132013/08/27 05:17
corp logoEVE Corporation 982379212013/08/10 22:592013/08/27 02:12
corp logoPerkone2013/08/10 22:482013/08/10 22:58
corp logoGriff-Co2013/08/10 19:552013/08/10 22:47
corp logoPerkone2013/08/10 19:032013/08/10 19:54
corp logoFederal Defense Union2013/08/10 17:012013/08/10 19:02
corp logoPerkone2013/08/10 16:332013/08/10 17:00
corp logoNo Tax United Corp2013/08/09 16:292013/08/10 16:32
corp logoPerkone2013/08/09 15:562013/08/09 16:28
corp logoSubZero Mining2013/08/06 05:292013/08/09 15:55
corp logoPerkone2013/08/02 01:262013/08/06 05:28
corp logoGuy Fawkes Trust Fund2013/08/01 18:452013/08/02 01:25
corp logoPerkone2013/08/01 04:432013/08/01 18:44
corp logoBeyond The Blue2013/07/27 03:492013/08/01 04:42
corp logoPerkone2013/07/27 01:462013/07/27 03:48
corp logoFederal Defense Union2013/07/26 19:002013/07/27 01:45
corp logoPerkone2013/07/26 18:192013/07/26 18:59
corp logo312th Sovereignty Mining inc2013/07/26 18:052013/07/26 18:18
corp logoPerkone2013/07/25 21:052013/07/26 18:04
corp logoTraverse Holdings2013/07/24 23:302013/07/25 21:04
corp logoPerkone2013/07/23 20:042013/07/24 23:29
corp logoBelow The Blue2013/07/22 04:372013/07/23 20:03
corp logoPerkone2013/07/22 04:242013/07/22 04:36
corp logoGuy Fawkes Trust Fund2013/07/16 18:552013/07/22 04:23
corp logoPerkone2013/07/14 14:252013/07/16 18:54
corp logoMutha F'n Wal-mart2013/07/09 03:092013/07/14 14:24
corp logoPerkone2013/07/09 02:442013/07/09 03:08
corp logoGuy Fawkes Trust Fund2013/05/13 01:592013/07/09 02:43
corp logoPerkone2013/05/12 13:072013/05/13 01:58
corp logoEternal Soldiers of The One2013/04/28 22:042013/05/12 13:06
corp logoPerkone2013/04/28 22:042013/04/28 22:03
corp logoThe Ashen Syndicate2013/04/23 21:192013/04/28 22:03
corp logoPerkone2013/04/23 21:102013/04/23 21:18
corp logothis is a temp corpp2013/04/18 02:052013/04/23 21:09
corp logoPerkone2013/04/18 01:362013/04/18 02:04
corp logoThe Ashen Syndicate2013/03/29 01:392013/04/18 01:35
corp logoPerkone2013/03/28 22:102013/03/29 01:38
corp logoSpace-Time Continuum Industries2013/03/05 04:272013/03/28 22:09
corp logoPerkone2013/03/05 04:182013/03/05 04:26
corp logoUMMC MINING CORE2013/03/01 23:152013/03/05 04:17
corp logoPerkone2013/03/01 01:212013/03/01 23:14
corp logoTyranics2013/03/01 01:182013/03/01 01:20
corp logoPerkone2013/02/28 22:312013/03/01 01:17
corp logoUMMC MINING CORE2013/02/27 04:012013/02/28 22:30
corp logoPerkone2013/02/27 04:002013/02/27 04:00
corp logoSpace-Time Continuum Industries2013/02/22 04:352013/02/27 03:59
corp logoPerkone2013/02/22 04:342013/02/22 04:34
corp logoUMMC MINING CORE2013/02/08 00:172013/02/22 04:33
corp logoPerkone2013/02/07 21:412013/02/08 00:16
corp logoTHE AMC2013/01/29 00:512013/02/07 21:40
corp logoPerkone2013/01/29 00:452013/01/29 00:50
corp logoFenix Mercenary Group2013/01/28 23:362013/01/29 00:44
corp logoPerkone2013/01/28 05:032013/01/28 23:35
corp logoUMMC MINING CORE2013/01/26 05:272013/01/28 05:02
corp logoPerkone2013/01/25 23:102013/01/26 05:26
corp logoTHE UMC2013/01/04 01:332013/01/25 23:09
corp logoPerkone2013/01/04 00:472013/01/04 01:32
corp logoLords Of Tyranny2012/12/14 01:482013/01/04 00:46
corp logoPerkone2012/12/12 03:142012/12/14 01:47
corp logoThe Men Who Sold Worlds2012/12/11 23:262012/12/12 03:13
corp logoPerkone2012/12/11 23:032012/12/11 23:25
corp logoIncursion Squad2012/12/10 10:452012/12/11 23:02
corp logoPerkone2012/11/11 05:022012/12/10 10:44
corp logoWorld Domination Inc2012/10/01 00:292012/11/11 05:01
corp logoPerkone2012/10/01 00:192012/10/01 00:28
corp logoTreasure Seekers Society2012/09/24 23:142012/10/01 00:18
corp logoPerkone2012/09/24 19:142012/09/24 23:13
corp logoJaxx Industries2012/08/14 02:322012/09/24 19:13
corp logoPerkone2012/08/11 01:242012/08/14 02:31
corp logoStrategic Fighters Association2012/05/30 03:322012/08/11 01:23
corp logoPerkone2012/05/29 02:042012/05/30 03:31
corp logoVanguard Venture R and D2012/05/27 14:512012/05/29 02:03
corp logoPerkone2012/05/26 02:432012/05/27 14:50
corp logoVanguard Venture2012/05/18 16:202012/05/26 02:42
corp logoPerkone2012/05/17 22:002012/05/18 16:19
corp logoRed Federation2012/05/17 12:052012/05/17 21:59
corp logoPerkone2012/05/17 11:392012/05/17 12:04
corp logoVanguard Venture2012/04/09 00:142012/05/17 11:38
corp logoVanguard Venture R and D2012/03/18 15:412012/04/09 00:13
corp logoTwilight Astro Miners2011/07/24 15:572012/03/18 15:40
corp logoPerkone2011/07/23 00:232011/07/24 15:56
corp logoAirom and Rodnog Ltd.2010/09/06 22:022011/07/23 00:22
corp logoMiners Unite Front2010/09/03 13:472010/09/06 22:01
corp logoPerkone2010/04/04 03:232010/09/03 13:46
corp logoFor The Booze2010/01/14 18:172010/04/04 03:22
corp logoPerkone2010/01/14 17:022010/01/14 18:16
corp logoThe Industrial Federation2009/12/14 06:232010/01/14 17:01
corp logoPerkone2009/03/19 22:542009/12/14 06:22
corp logoHidden Leaf Village Industry2008/09/22 02:012009/03/19 22:53
corp logoState War Academy2008/09/21 20:222008/09/22 02:00


Any pilots, corporations, or alliances that relate to actual people or entities are purely coincidental.
7q/27ms Disclaimer A / C Brought to you by: Squizz Caphinator Forum Thread
EVE Online and the EVE logo are the registered trademarks of CCP hf. All rights are reserved worldwide. All other trademarks are the property of their respective owners. EVE Online, the EVE logo, EVE and all associated logos and designs are the intellectual property of CCP hf. All artwork, screenshots, characters, vehicles, storylines, world facts or other recognizable features of the intellectual property relating to these trademarks are likewise the intellectual property of CCP hf. CCP hf. has granted permission to evewho.com to use EVE Online and all associated logos and designs for promotional and information purposes on its website but does not endorse, and is not in any way affiliated with, evewho.com. CCP is in no way responsible for the content on or functioning of this website, nor can it be liable for any damage arising from the use of this website.